Location: Newark
(51.2625°N, 13.3939°E)
Time: 08:00:41
(UTC+00:00)

Transit 2A Rocket - Pass Details

Date: 21 January 2021
Orbit: 594 x 909 km, 66.7° (Epoch: 24 February)

Event Time Altitude Azimuth Distance (km) Brightness Sun altitude
Rises 16:34:37 0° 307° (NW) 3,107 8.6 -8.8°
Reaches altitude 10° 16:38:31 10° 337° (NNW) 2,110 7.3 -9.4°
Maximum altitude 16:40:28 12° 1° (N) 1,923 6.9 -9.7°
Drops below altitude 10° 16:42:23 10° 26° (NNE) 2,043 6.8 -9.9°
Enters shadow 16:43:14 - 35° (NE) 2,187 6.9 -10.1°
